webshopapp.com alexa rank chart, webshopapp.com alexa rank daily changes

webshopapp.com alexa rank chart, webshopapp.com alexa rank daily changes

webshopapp.com
Actual rank:
26 612

RANK HISTORY

Date Rank Diff
2017/11/23 26 612 -47
2017/11/22 26 659 +205
2017/11/21 26 454 +432
2017/11/20 26 022 +607
2017/11/19 25 415 -150
2017/11/18 25 565 -155
2017/11/17 25 720 -293
2017/11/16 26 013 -295
2017/11/15 26 308 -408
2017/11/14 26 716 +188
2017/11/13 26 528 +439
2017/11/12 26 089 -144
2017/11/11 26 233 +91
2017/11/10 26 142 -305
2017/11/09 26 447 -246
2017/11/08 26 693 -72
2017/11/07 26 765 +457
2017/11/06 26 308 +161
2017/11/05 26 147 +4
2017/11/04 26 143 -270
2017/11/03 26 413 -463
2017/11/02 26 876 -418
2017/11/01 27 294 -307
2017/10/31 27 601 +78
2017/10/30 27 523 +212
2017/10/29 27 311 +26
2017/10/28 27 285 +1
2017/10/27 27 284 +367
2017/10/26 26 917 -381
2017/10/25 27 298 -334
2017/10/24 27 632 +723
2017/10/23 26 909 +344
2017/10/22 26 565 -290
2017/10/21 26 855 +167
2017/10/20 26 688 -139
2017/10/19 26 827 +92
2017/10/18 26 735 -204
2017/10/17 26 939 +335
2017/10/16 26 604 +280
2017/10/14 26 324 -48
2017/10/13 26 372 -384
2017/10/12 26 756 -375
2017/10/11 27 131 -281
2017/10/10 27 412 +381
2017/10/09 27 031 +228
2017/10/08 26 803 -323
2017/10/07 27 126 -130
2017/10/06 27 256 +216
2017/10/05 27 040 -217
2017/10/04 27 257 -80
2017/10/03 27 337 +491
2017/10/02 26 846 +431
2017/10/01 26 415 +336
2017/09/30 26 079 +42
2017/09/29 26 037 -459
2017/09/28 26 496 -296
2017/09/27 26 792 +105
2017/09/26 26 687 +444
2017/09/25 26 243 -21
2017/09/24 26 264

WIDGET FOR YOUR SITE

DOMAINS WITH THE NEAREST RANK

Domain Rank
gamesisart.ru 26 607
youloveit.ru 26 608
kporno.com 26 609
psychologos.ru 26 610
mz-web.de 26 611
webshopapp.com 26 612
fapvidhd.com 26 613
codewars.com 26 614
ccidcom.com 26 615
houzz.ru 26 616
ctitv.com.tw 26 617

DOMAINS WITH THE NEAREST RANK BY TLD .com

Domain Rank
geappliances.com 26 601
afpforum.com 26 602
mt.com 26 603
askfortask.com 26 606
kporno.com 26 609
webshopapp.com 26 612
fapvidhd.com 26 613
codewars.com 26 614
ccidcom.com 26 615
w3cplus.com 26 618
sampletemplates.com 26 619